Content
SEND FEEDBACK

Daily
Averages
Monthly
Summary
United States of America

LOOP, TEXAS


Home > North America > United States > Texas
Elevation: 3200 feet     Latitude: 32 54N     Longitude: 102 25W

WEATHER
 
SELECT A DAY
Number of Records: 253,216;   Date Range: 4/19/04 - 11/22/14
 
SHARE

PRINT THIS DATA

[ ← Previous Day ]
WEATHER ALMANAC - FEBRUARY 13, 2013
[ Next Day → ]
[ °C ]   °F
Weather ElementAverageHighLow
Temperature40.9 °F58.1 °F (4:15 pm)25.5 °F (6:55 am)
Dewpoint16.5 °F28 °F (9:55 am)5.9 °F (5:15 pm)
Humidity47.9 %89 % (4:35 am)13 % (4:35 pm)
Barometer30.06 in30.13 in (12:35 am)29.96 in (6:15 pm)
Wind Speed6.3 mph17.3 mph (3:35 pm)
Wind Gust23 mph (1:35 pm)
Weather ElementAverage
Visibility10 mi
Wind DirectionSSE (156.3 °)

Weather ElementTotal
Precipitation---
Heating Degree Days23.2 (Base 65)
Averaged from 71 records on February 13, 2013
WEATHER CONDITIONS BREAKOUT
WIND DIRECTION BREAKOUT
WEATHER BY HOUR - FEBRUARY 13, 2013
[ °C ]   °F
Local TimeTemperatureDewpointHumidityBarometerVisibilityWind DirectionWind SpeedGust SpeedPrecipitationEventsConditions
12:35 AM29.5 °F24.8 °F83 %30.13 in10.0 miCalmClear
12:55 AM29.5 °F25.0 °F83 %30.13 in10.0 miCalmClear
1:15 AM28.9 °F24.6 °F84 %30.13 in10.0 miWNW (290°)5.8 mphClear
1:35 AM28.0 °F24.1 °F85 %30.13 in10.0 miCalmClear
1:55 AM26.4 °F23.0 °F87 %30.13 in10.0 miCalmClear
2:15 AM27.5 °F24.1 °F87 %30.13 in10.0 miCalmClear
2:35 AM29.1 °F25.2 °F85 %30.13 in10.0 miCalmClear
2:55 AM28.9 °F24.8 °F84 %30.12 in10.0 miCalmClear
3:15 AM28.4 °F24.6 °F86 %30.12 in10.0 miCalmClear
3:35 AM28.2 °F24.4 °F86 %30.11 in10.0 miCalmClear
3:55 AM27.7 °F24.3 °F87 %30.11 in10.0 miCalmClear
4:15 AM26.2 °F22.8 °F87 %30.10 in10.0 miCalmClear
4:35 AM25.9 °F23.0 °F89 %30.11 in10.0 miCalmClear
4:55 AM27.3 °F24.1 °F88 %30.11 in10.0 miCalmClear
5:15 AM28.4 °F24.6 °F86 %30.10 in10.0 miWNW (300°)4.6 mphClear
5:35 AM27.0 °F23.4 °F86 %30.09 in10.0 miCalmClear
5:55 AM26.4 °F23.2 °F88 %30.09 in10.0 miCalmClear
6:15 AM26.4 °F23.2 °F88 %30.10 in10.0 miWest (270°)6.9 mphClear
6:35 AM25.7 °F22.3 °F87 %30.11 in10.0 miWSW (250°)9.2 mphClear
6:55 AM25.5 °F22.6 °F89 %30.11 in10.0 miWest (260°)6.9 mphClear
7:15 AM25.7 °F22.8 °F89 %30.11 in10.0 miWSW (250°)6.9 mphClear
7:35 AM25.9 °F22.8 °F88 %30.11 in10.0 miWSW (250°)6.9 mphClear
7:55 AM25.7 °F22.3 °F87 %30.11 in10.0 miWSW (240°)6.9 mphClear
8:15 AM26.8 °F22.8 °F85 %30.12 in10.0 miWest (260°)6.9 mphClear
8:35 AM29.5 °F24.3 °F81 %30.12 in10.0 miWSW (240°)6.9 mphClear
8:55 AM32.5 °F25.9 °F76 %30.12 in10.0 miWSW (240°)10.4 mphClear
9:15 AM35.6 °F26.8 °F70 %30.12 in10.0 miWSW (250°)10.4 mphClear
9:35 AM38.3 °F27.9 °F66 %30.13 in10.0 miWSW (240°)10.4 mphClear
9:55 AM40.6 °F28.0 °F61 %30.13 in10.0 miWSW (250°)13.8 mphClear
10:15 AM43.5 °F28.0 °F54 %30.13 in10.0 miWSW (240°)15.0 mph19.6 mphClear
10:35 AM45.5 °F27.9 °F50 %30.13 in10.0 miSW (230°)15.0 mph20.7 mphClear
10:55 AM47.3 °F26.4 °F44 %30.13 in10.0 miWSW (240°)11.5 mphClear
11:15 AM48.9 °F24.1 °F38 %30.13 in10.0 miWSW (250°)13.8 mphClear
11:35 AM49.8 °F21.2 °F32 %30.12 in10.0 miWest (270°)11.5 mph18.4 mphClear
11:55 AM50.5 °F18.5 °F28 %30.12 in10.0 miWSW (250°)11.5 mph17.3 mphClear
12:15 PM51.6 °F17.1 °F26 %30.11 in10.0 miWSW (250°)10.4 mph16.1 mphClear
12:35 PM52.3 °F16.7 °F24 %30.10 in10.0 miWSW (250°)11.5 mph19.6 mphClear
12:55 PM54.0 °F16.9 °F23 %30.09 in10.0 miWest (260°)11.5 mph18.4 mphClear
1:15 PM54.3 °F15.8 °F22 %30.07 in10.0 miSW (230°)9.2 mph16.1 mphClear
1:35 PM55.0 °F13.6 °F19 %30.05 in10.0 miSW (230°)10.4 mph23.0 mphClear
1:55 PM55.2 °F12.2 °F18 %30.04 in10.0 miWest (260°)11.5 mphClear
2:15 PM55.9 °F12.4 °F18 %30.03 in10.0 miWest (270°)13.8 mph19.6 mphClear
2:35 PM56.5 °F12.2 °F17 %30.01 in10.0 miWSW (240°)15.0 mph20.7 mphClear
2:55 PM57.2 °F11.7 °F17 %30.00 in10.0 miSW (230°)11.5 mph21.9 mphClear
3:15 PM57.4 °F11.3 °F16 %30.00 in10.0 miSW (220°)11.5 mph20.7 mphClear
3:35 PM57.7 °F10.4 °F15 %29.99 in10.0 miWSW (240°)17.3 mph21.9 mphClear
3:55 PM57.7 °F9.1 °F15 %29.99 in10.0 miWSW (250°)10.4 mph20.7 mphClear
4:15 PM58.1 °F8.4 °F14 %29.99 in10.0 miWSW (250°)12.7 mphClear
4:35 PM58.1 °F7.2 °F13 %29.99 in10.0 miWSW (250°)13.8 mphClear
4:55 PM58.1 °F6.1 °F13 %29.99 in10.0 miWSW (250°)10.4 mphClear
5:15 PM57.9 °F5.9 °F13 %29.97 in10.0 miWSW (240°)12.7 mph18.4 mphClear
5:35 PM57.4 °F6.1 °F13 %29.97 in10.0 miSW (230°)10.4 mphClear
5:55 PM56.7 °F6.6 °F14 %29.97 in10.0 miSW (220°)9.2 mphClear
6:15 PM55.6 °F7.0 °F14 %29.96 in10.0 miSSW (210°)6.9 mphClear
6:35 PM52.7 °F7.0 °F16 %29.96 in10.0 miSSW (200°)4.6 mphClear
6:55 PM50.0 °F6.6 °F17 %29.98 in10.0 miCalmClear
7:15 PM49.1 °F7.7 °F19 %29.98 in10.0 miCalmClear
7:35 PM47.7 °F7.3 °F19 %29.99 in10.0 miCalmClear
7:55 PM45.9 °F6.8 °F20 %30.00 in10.0 miCalmClear
8:15 PM45.1 °F6.4 °F21 %30.00 in10.0 miWSW (240°)4.6 mphClear
8:35 PM43.9 °F6.3 °F21 %30.00 in10.0 miCalmClear
8:55 PM42.8 °F6.8 °F23 %30.00 in7.0 miCalmClear
9:15 PM41.2 °F6.8 °F24 %30.00 in10.0 miCalmClear
9:35 PM39.6 °F6.8 °F26 %30.00 in10.0 miCalmClear
9:55 PM38.5 °F6.8 °F27 %30.00 in10.0 miCalmClear
10:15 PM38.3 °F6.8 °F27 %30.01 in10.0 miWSW (240°)6.9 mphClear
10:35 PM37.9 °F6.6 °F27 %30.01 in10.0 miWest (260°)4.6 mphClear
10:55 PM36.5 °F6.4 °F29 %30.02 in10.0 miWSW (240°)5.8 mphClear
11:15 PM36.7 °F6.6 °F29 %30.02 in10.0 miCalmClear
11:35 PM36.7 °F6.6 °F29 %30.02 in10.0 miCalmClear
11:55 PM37.8 °F6.4 °F27 %30.03 in10.0 miWest (270°)6.9 mphClear
Hourly data recorded from KGNC, located miles away from Loop, Texas







STORIES FROM OUR PARTNERS